Location: Newark
(25.6108°S, 54.5803°W)
Time: 08:36:29
(UTC+00:00)

deb Explorer IX - Pass Details

Date: 01 November 2020
Orbit: 538 x 1104 km, 38.8° (Epoch: 23 November)

Event Time Altitude Azimuth Distance (km) Brightness Sun altitude
Rises 17:52:16 0° 302° (WNW) 3,803 ? 53.2°
Reaches altitude 10° 17:55:07 10° 302° (WNW) 2,793 ? 52.6°
Maximum altitude 18:01:54 88° 211° (SSW) 924 ? 51.1°
Drops below altitude 10° 18:07:44 10° 122° (ESE) 2,418 ? 49.8°
Sets 18:10:03 0° 121° (ESE) 3,265 ? 49.3°
